• In India
  • List of Countries
  • For 7 days
  • Water Temperature
  • Satellite Maps
  • Weather Map
  • Weather Widgets
  • user-avatar
    Login

    Hourly Weather Lasy

    Today, 19 February, Tuesday

    Time Temperature Precipitation Wind Pressure Humidity
    00:00 +3°C° 0 mm 2 mps 743 mmHg 88%
    01:00 +1°C° 0 mm 3 mps 743 mmHg 89%
    02:00 +1°C° 0 mm 3 mps 742 mmHg 89%
    03:00 +1°C° 0 mm 3 mps 742 mmHg 90%
    04:00 0°C° 0 mm 3 mps 741 mmHg 90%
    05:00 0°C° 0 mm 3 mps 741 mmHg 90%
    06:00 0°C° 0 mm 3 mps 741 mmHg 90%
    07:00 0°C° 0 mm 3 mps 741 mmHg 90%
    08:00 +1°C° 0 mm 3 mps 741 mmHg 83%
    09:00 +3°C° 0 mm 4 mps 741 mmHg 76%
    10:00 +5°C° 0 mm 4 mps 740 mmHg 69%
    11:00 +6°C° 0 mm 4 mps 740 mmHg 64%
    12:00 +7°C° 0 mm 4 mps 740 mmHg 58%
    13:00 +8°C° 0 mm 4 mps 739 mmHg 53%
    14:00 +8°C° 0 mm 4 mps 739 mmHg 53%
    15:00 +8°C° 0 mm 4 mps 739 mmHg 54%
    16:00 +8°C° 0 mm 4 mps 738 mmHg 55%
    17:00 +7°C° 0 mm 4 mps 738 mmHg 61%
    18:00 +6°C° 0 mm 4 mps 738 mmHg 66%
    19:00 +4°C° 0 mm 4 mps 738 mmHg 72%
    20:00 +4°C° 0 mm 4 mps 738 mmHg 74%
    21:00 +4°C° 0 mm 4 mps 738 mmHg 77%
    22:00 +3°C° 0 mm 4 mps 738 mmHg 79%
    23:00 +4°C° 0.4 mm 4 mps 738 mmHg 81%

    Tomorrow, 20 February, Wednesday

    Time Temperature Precipitation Wind Pressure Humidity
    00:00 +4°C° 0.4 mm 4 mps 738 mmHg 84%
    01:00 +3°C° 0.4 mm 5 mps 739 mmHg 87%
    02:00 +3°C° 0.6 mm 4 mps 738 mmHg 88%
    03:00 +3°C° 0.6 mm 4 mps 738 mmHg 90%
    04:00 +3°C° 0.6 mm 4 mps 738 mmHg 91%
    05:00 +3°C° 0 mm 4 mps 739 mmHg 91%
    06:00 +2°C° 0 mm 5 mps 739 mmHg 90%
    07:00 +2°C° 0 mm 5 mps 739 mmHg 90%
    08:00 +2°C° 0.1 mm 6 mps 740 mmHg 84%
    09:00 +3°C° 0.1 mm 6 mps 740 mmHg 79%
    10:00 +4°C° 0.1 mm 7 mps 740 mmHg 73%
    11:00 +4°C° 0.1 mm 7 mps 740 mmHg 70%
    12:00 +4°C° 0.1 mm 7 mps 741 mmHg 67%
    13:00 +4°C° 0.1 mm 7 mps 741 mmHg 65%
    14:00 +4°C° 0.1 mm 7 mps 741 mmHg 65%
    15:00 +3°C° 0.1 mm 7 mps 741 mmHg 66%
    16:00 +3°C° 0.1 mm 7 mps 741 mmHg 67%
    17:00 +3°C° 0 mm 6 mps 741 mmHg 70%
    18:00 +2°C° 0 mm 6 mps 742 mmHg 74%
    19:00 +2°C° 0 mm 5 mps 742 mmHg 77%
    20:00 +2°C° 0 mm 5 mps 742 mmHg 78%
    21:00 +1°C° 0 mm 5 mps 743 mmHg 79%
    22:00 +1°C° 0 mm 5 mps 743 mmHg 80%
    23:00 +1°C° 0 mm 4 mps 743 mmHg 81%

    Day after tomorrow, 21 February, Thursday

    Time Temperature Precipitation Wind Pressure Humidity
    00:00 +1°C° 0 mm 4 mps 743 mmHg 82%
    01:00 +1°C° 0 mm 4 mps 743 mmHg 84%
    02:00 +1°C° 0 mm 4 mps 743 mmHg 83%
    03:00 +1°C° 0 mm 4 mps 743 mmHg 83%
    04:00 +1°C° 0 mm 4 mps 743 mmHg 83%
    05:00 +1°C° 0.1 mm 4 mps 743 mmHg 85%
    06:00 +1°C° 0.1 mm 4 mps 743 mmHg 87%
    07:00 +1°C° 0.1 mm 4 mps 743 mmHg 90%
    08:00 +2°C° 0.2 mm 5 mps 743 mmHg 87%
    09:00 +3°C° 0.2 mm 5 mps 743 mmHg 85%
    10:00 +3°C° 0.2 mm 5 mps 743 mmHg 82%
    11:00 +3°C° 0.2 mm 5 mps 743 mmHg 82%
    12:00 +3°C° 0.2 mm 5 mps 743 mmHg 81%
    13:00 +5°C° 0.2 mm 5 mps 742 mmHg 81%
    14:00 +3°C° 0.2 mm 5 mps 742 mmHg 83%
    15:00 +3°C° 0.2 mm 5 mps 742 mmHg 84%
    16:00 +3°C° 0.2 mm 5 mps 742 mmHg 86%
    17:00 +4°C° 0.7 mm 4 mps 741 mmHg 88%
    18:00 +4°C° 0.7 mm 4 mps 741 mmHg 90%
    19:00 +3°C° 0.7 mm 4 mps 741 mmHg 91%
    20:00 +3°C° 0.9 mm 4 mps 741 mmHg 92%
    21:00 +3°C° 0.9 mm 4 mps 741 mmHg 93%
    22:00 +3°C° 0.9 mm 3 mps 741 mmHg 94%
    23:00 +3°C° 0.3 mm 3 mps 742 mmHg 95%

    22 February, Friday

    Time Temperature Precipitation Wind Pressure Humidity
    00:00 +3°C° 0.3 mm 3 mps 742 mmHg 95%
    01:00 +4°C° 0.3 mm 4 mps 742 mmHg 95%
    02:00 +3°C° 0.3 mm 4 mps 742 mmHg 93%
    03:00 +1°C° 0.3 mm 5 mps 742 mmHg 91%
    04:00 -1°C° 0.3 mm 6 mps 743 mmHg 89%
    05:00 -2°C° 0.2 mm 6 mps 744 mmHg 87%
    06:00 -3°C° 0.2 mm 6 mps 745 mmHg 84%
    07:00 -4°C° 0.2 mm 7 mps 745 mmHg 82%
    08:00 -4°C° 0 mm 7 mps 747 mmHg 75%
    09:00 -4°C° 0 mm 6 mps 748 mmHg 69%
    10:00 -4°C° 0 mm 6 mps 749 mmHg 62%
    11:00 -4°C° 0 mm 6 mps 750 mmHg 60%
    12:00 -4°C° 0 mm 6 mps 751 mmHg 58%
    13:00 -4°C° 0 mm 6 mps 751 mmHg 56%
    14:00 -4°C° 0 mm 6 mps 752 mmHg 55%
    15:00 -5°C° 0 mm 6 mps 752 mmHg 53%
    16:00 -5°C° 0 mm 6 mps 753 mmHg 52%
    17:00 -6°C° 0 mm 6 mps 754 mmHg 52%
    18:00 -6°C° 0 mm 5 mps 754 mmHg 51%
    19:00 -7°C° 0 mm 5 mps 755 mmHg 51%
    20:00 -7°C° 0 mm 5 mps 756 mmHg 50%
    21:00 -7°C° 0 mm 5 mps 756 mmHg 49%
    22:00 -7°C° 0 mm 4 mps 757 mmHg 48%
    23:00 -7°C° 0 mm 4 mps 757 mmHg 47%

    23 February, Saturday

    Time Temperature Precipitation Wind Pressure Humidity
    00:00 -7°C° 0 mm 4 mps 757 mmHg 46%
    01:00 -6°C° 0 mm 3 mps 757 mmHg 45%
    02:00 -6°C° 0 mm 3 mps 757 mmHg 45%
    03:00 -7°C° 0 mm 4 mps 757 mmHg 45%
    04:00 -7°C° 0 mm 4 mps 757 mmHg 44%
    05:00 -7°C° 0 mm 4 mps 757 mmHg 45%
    06:00 -6°C° 0 mm 3 mps 757 mmHg 45%
    07:00 -6°C° 0 mm 3 mps 757 mmHg 46%
    08:00 -5°C° 0 mm 3 mps 757 mmHg 43%
    09:00 -4°C° 0 mm 3 mps 757 mmHg 39%
    10:00 -2°C° 0 mm 3 mps 757 mmHg 36%
    11:00 -2°C° 0 mm 3 mps 757 mmHg 34%
    12:00 -2°C° 0 mm 4 mps 756 mmHg 33%
    13:00 -2°C° 0 mm 4 mps 756 mmHg 32%
    14:00 -2°C° 0 mm 4 mps 756 mmHg 33%
    15:00 -2°C° 0 mm 4 mps 755 mmHg 34%
    16:00 -2°C° 0 mm 4 mps 755 mmHg 35%
    17:00 -3°C° 0 mm 4 mps 755 mmHg 43%
    18:00 -2°C° 0 mm 3 mps 755 mmHg 50%
    19:00 -2°C° 0 mm 3 mps 755 mmHg 58%
    20:00 -3°C° 0 mm 2 mps 754 mmHg 58%
    21:00 -3°C° 0 mm 2 mps 754 mmHg 59%
    22:00 -1°C° 0 mm 1 mps 754 mmHg 59%
    23:00 -3°C° 0 mm 2 mps 754 mmHg 60%

    24 February, Sunday

    Time Temperature Precipitation Wind Pressure Humidity
    00:00 -3°C° 0 mm 2 mps 754 mmHg 60%
    01:00 -3°C° 0 mm 2 mps 754 mmHg 61%
    02:00 -3°C° 0 mm 2 mps 753 mmHg 64%
    03:00 -3°C° 0 mm 2 mps 753 mmHg 68%
    04:00 -3°C° 0 mm 2 mps 753 mmHg 71%
    05:00 -1°C° 0 mm 1 mps 753 mmHg 73%
    06:00 -1°C° 0 mm 1 mps 754 mmHg 74%
    07:00 0°C° 0 mm 1 mps 754 mmHg 75%
    08:00 0°C° 0 mm 1 mps 754 mmHg 75%
    09:00 +1°C° 0 mm 1 mps 754 mmHg 75%
    10:00 -1°C° 0 mm 2 mps 754 mmHg 75%
    11:00 +1°C° 0 mm 2 mps 754 mmHg 75%
    12:00 +1°C° 0 mm 2 mps 754 mmHg 75%
    13:00 +3°C° 0 mm 1 mps 754 mmHg 74%
    14:00 +3°C° 0 mm 1 mps 754 mmHg 78%
    15:00 +3°C° 0 mm 1 mps 754 mmHg 81%
    16:00 +3°C° 0 mm 1 mps 753 mmHg 84%
    17:00 +2°C° 0 mm 1 mps 753 mmHg 87%
    18:00 +2°C° 0 mm 1 mps 753 mmHg 90%
    19:00 +1°C° 0 mm 1 mps 753 mmHg 93%
    20:00 +1°C° 0 mm 1 mps 753 mmHg 94%
    21:00 +1°C° 0 mm 1 mps 752 mmHg 95%
    22:00 +1°C° 0 mm 1 mps 752 mmHg 96%
    23:00 +1°C° 0 mm 1 mps 752 mmHg 96%
    Show more